Probability
0 0 0 0 0 0 0 0 0 0 0 0 0 0 1 1 1 0 0 0 0 0 0 0 0 0 0 0 0 0 0 0 0 0 1 2 3 3
0 0 0 0 0 0 0 0 0 0 0 0 0 0 0 0 0 0 0 0 0 0 0 0 0 0 0 0 0 0 0 0 0 0 0 1 2 1
0 0 0 0 0 0 0 0 0 0 0 0 0 0 0 0 0 0 0 0 0 0 0 0 0 0 0 0 0 0 0 0 0 0 0 0 0 0
0 0 0 0 0 0 0 0 0 0 0 0 0 0 0 0 0 0 0 0 0 0 0 0 0 0 0 0 0 0 0 0 0 0 0 0 0 0
0 0 0 0 0 0 0 0 0 0 0 0 0 0 0 0 0 0 0 0 0 0 0 0 0 0 0 0 0 0 0 0 0 0 0 0 0 0
0 0 0 0 0 0 0 0 0 0 0 0 0 0 0 0 0 0 0 0 1 1 1 0 0 0 0 0 0 0 0 0 0 0 0 0 0 0
0 0 0 0 0 0 0 0 0 0 0 0 0 0 0 0 0 0 0 0 1 2 2 1 0 0 0 0 0 0 0 0 0 0 0 0 0 0
0 0 0 0 0 0 0 0 0 0 0 0 0 0 0 0 0 0 0 0 1 1 1 1 0 0 0 0 0 0 0 0 0 0 0 0 0 0
0 0 0 0 0 0 0 0 0 0 0 0 0 0 0 0 0 0 0 0 0 0 0 0 0 0 0 0 0 0 0 0 0 0 0 0 0 0
0 0 0 0 0 0 0 0 0 0 0 0 0 0 0 0 0 0 0 0 0 0 0 0 0 0 0 0 0 0 0 0 0 0 0 0 0 0
0 0 0 0 0 0 0 0 0 0 0 0 0 0 0 0 0 0 0 0 0 0 0 0 0 0 0 0 0 0 0 0 0 0 0 0 0 0
0 0 0 0 0 0 0 0 0 0 0 0 0 0 0 0 0 0 0 0 0 0 0 0 0 0 0 0 0 0 0 0 0 0 0 0 0 0
0 0 0 0 0 0 0 0 0 0 0 0 0 0 0 0 0 0 0 0 0 0 0 0 0 0 0 0 0 0 0 0 0 0 0 0 0 0
0 0 0 0 0 0 0 0 0 0 0 0 0 0 0 0 0 0 0 0 0 0 0 0 0 0 0 0 0 0 0 0 0 0 0 0 0 0
0 0 0 0 0 0 0 0 0 0 0 0 0 0 0 0 0 0 0 0 0 0 0 0 0 0 0 0 0 0 0 0 0 0 0 0 0 0
0 0 0 0 0 0 0 0 0 0 0 0 0 0 0 0 0 0 0 0 0 0 0 0 0 0 0 0 0 0 0 0 0 0 0 0 0 0
0 0 0 0 0 0 0 0 0 0 0 0 0 0 0 0 0 0 0 0 0 0 0 0 0 0 0 0 0 0 0 0 0 0 0 0 0 0
0 0 0 0 0 0 0 0 0 0 0 0 0 0 0 0 0 0 0 0 0 0 0 0 0 0 0 0 0 0 0 0 0 0 0 0 0 0
0 0 0 0 0 0 0 0 0 0 0 0 0 0 0 0 0 0 0 0 0 0 0 0 0 0 0 0 0 0 0 0 0 0 0 0 0 0
0 0 0 0 0 0 0 0 0 0 0 0 0 0 0 0 0 0 0 0 0 0 0 0 0 0 0 0 0 0 0 0 0 0 0 0 0 0
0 0 0 0 0 0 0 0 0 0 0 0 0 0 0 0 0 0 0 0 0 0 0 0 0 0 0 0 0 0 0 0 0 0 0 0 0 0
0 0 0 0 0 0 0 0 0 0 0 0 0 0 0 0 0 0 0 0 0 0 0 0 0 0 0 0 0 0 0 0 0 0 0 0 0 0
0 0 0 0 0 0 0 0 0 0 0 0 0 0 0 0 0 0 0 0 0 0 0 0 0 0 0 0 0 0 0 0 0 0 0 0 0 0
Wind_Speed
4 4 3 3 3 2 2 1 1 2 3 3 3 4 4 4 5 4 7 10 10 10 11 11 12 12 12 13 13 13 13 12 11 11 10 10 9 8
3 4 4 3 3 2 2 2 1 1 2 3 3 3 4 3 5 5 6 7 10 10 10 10 11 11 11 12 12 12 12 11 11 11 11 11 10 9
4 5 5 4 3 2 2 2 2 2 3 3 3 3 3 4 4 4 4 4 6 10 10 9 9 10 10 11 11 11 11 11 11 11 11 10 10 10
4 5 4 3 3 3 2 3 3 3 2 3 3 3 3 4 3 3 3 4 5 8 9 9 10 9 9 9 10 10 10 10 10 10 9 9 9 9
4 4 4 4 3 3 2 3 2 2 2 2 3 2 2 2 2 2 4 3 3 4 5 7 8 8 8 8 8 9 9 9 8 8 8 8 8 8
3 3 3 3 3 3 3 3 2 2 2 2 2 2 1 2 1 2 2 2 2 3 4 3 4 4 5 6 7 7 7 7 7 7 7 7 7 8
3 3 4 5 6 4 2 2 2 1 1 1 1 1 1 1 2 2 2 1 2 2 2 2 2 2 2 3 4 6 6 6 6 7 7 7 7 7
3 3 4 4 4 4 4 5 4 2 1 0 0 1 2 2 2 2 2 2 1 2 3 2 2 2 2 3 5 5 5 5 5 6 6 6 7 7
2 2 2 2 2 4 5 5 2 2 3 3 2 2 2 2 2 2 2 3 3 2 3 2 2 2 2 2 3 2 4 5 5 5 6 7 7 8
2 2 2 2 2 1 2 2 1 2 1 2 2 2 3 3 3 3 3 3 2 1 2 3 3 3 3 1 2 0 2 3 4 5 6 7 8 9
3 2 2 2 3 1 2 2 2 2 3 2 3 2 3 3 4 3 3 3 2 1 1 3 3 4 4 3 1 3 3 3 4 5 7 8 9 10
3 3 2 1 3 3 4 3 2 1 2 3 3 4 3 2 3 3 3 3 3 2 1 3 3 4 4 2 3 3 3 4 5 6 6 6 8 8
4 4 3 5 4 4 5 3 1 2 2 2 2 1 1 1 1 2 2 3 4 3 2 3 4 4 5 5 5 4 5 5 5 5 5 5 6 7
4 4 4 7 5 5 4 1 1 4 3 3 3 2 2 2 2 2 2 3 4 4 4 4 4 5 6 7 6 5 5 5 6 6 6 4 6 8
3 1 3 6 6 5 5 5 6 5 4 4 3 3 2 2 2 2 3 4 4 4 4 5 5 5 6 7 7 7 7 6 6 6 7 7 7 7
5 5 5 5 5 3 5 6 6 4 4 4 4 3 3 3 3 3 4 4 5 4 4 5 6 6 7 8 8 8 7 7 6 7 7 8 8 8
5 5 5 5 6 5 5 5 5 5 5 5 5 5 4 4 4 4 4 5 6 6 5 4 5 5 7 8 8 8 8 8 7 7 8 9 9 8
6 6 6 6 6 6 6 6 6 6 6 5 5 5 5 5 5 5 5 6 6 6 6 5 5 6 7 7 7 9 8 8 8 9 9 10 10 9
6 6 6 6 6 6 6 6 6 6 5 6 6 6 6 6 6 6 6 6 7 7 6 6 6 7 9 10 6 6 8 9 9 9 9 10 11 11
7 7 6 6 6 6 6 6 6 6 6 6 6 6 6 6 7 7 7 7 7 7 7 6 6 7 9 10 10 8 8 9 9 10 10 10 11 11
7 7 6 6 6 6 6 6 6 6 6 6 6 7 6 7 7 7 7 7 8 8 9 8 6 6 8 8 9 10 9 8 10 11 12 12 12 12
5 6 6 6 5 5 5 6 6 6 7 7 7 6 6 7 7 8 8 7 7 8 9 8 7 6 7 9 11 12 12 10 9 13 15 14 12 12
4 4 4 4 5 5 5 6 8 7 7 7 6 6 6 6 6 7 7 8 8 8 9 8 7 7 8 9 11 11 14 13 10 10 10 11 16 19
Wind_Direction
81 86 77 77 74 71 71 36 47 116 95 66 55 43 40 47 20 41 55 50 41 41 41 42 43 43 45 47 47 47 47 48 51 51 51 50 52 55
75 80 78 85 78 77 61 44 17 40 84 73 63 55 42 54 42 46 63 72 55 44 43 44 45 45 47 49 50 47 45 46 47 49 47 45 44 43
98 92 86 79 88 81 74 74 60 63 97 96 88 78 69 55 51 45 50 56 68 51 44 44 45 45 48 50 49 48 45 44 44 45 44 41 37 33
91 94 95 94 83 72 64 76 79 80 100 104 97 73 60 54 47 43 50 55 63 67 51 47 46 46 47 47 46 45 43 40 39 38 37 34 31 27
88 90 93 100 101 94 83 78 80 82 87 104 84 68 62 51 50 49 59 47 55 83 76 65 54 49 48 47 47 44 42 39 36 33 31 27 20 15
99 90 82 85 88 101 100 93 91 94 90 89 87 89 75 44 18 26 41 40 29 37 42 55 78 78 70 60 52 44 39 34 29 25 21 16 12 7
118 105 80 58 40 36 39 78 106 119 114 95 86 80 67 36 12 349 2 353 41 15 354 11 20 30 63 87 66 41 29 25 21 17 13 7 2 359
134 128 125 130 112 101 60 35 14 5 19 33 2 20 19 21 355 323 334 321 347 17 330 350 347 355 2 21 46 33 20 16 11 5 360 354 349 345
158 143 126 123 172 149 145 160 118 48 349 321 330 351 341 358 323 317 335 332 334 353 322 321 339 340 344 36 72 23 8 6 360 351 344 339 335 330
186 181 177 169 137 186 166 158 121 98 28 296 329 351 351 346 319 313 314 295 285 301 312 304 325 320 320 331 114 38 329 333 338 338 334 330 325 319
188 196 216 184 115 225 225 197 179 144 112 80 27 24 19 353 315 278 280 281 295 317 340 303 311 314 302 286 191 187 240 268 292 307 315 318 316 306
190 191 173 246 141 219 230 220 227 209 189 172 185 196 213 177 231 275 296 291 299 306 9 309 304 311 299 291 303 283 263 249 255 267 280 294 307 304
200 202 176 169 194 223 254 250 271 283 237 237 238 232 241 253 236 259 288 291 292 294 326 305 297 299 295 296 295 296 300 300 289 275 258 262 281 291
214 208 170 163 186 210 226 193 208 250 245 244 247 252 257 262 274 282 277 273 279 287 292 288 288 293 293 291 294 297 295 297 297 297 298 278 262 258
227 148 149 168 187 201 204 212 220 230 238 244 250 256 263 275 276 267 264 265 268 268 272 273 275 283 285 288 294 298 299 297 293 295 298 298 297 293
214 179 177 189 213 226 205 209 225 237 246 250 255 257 254 249 250 257 261 261 264 262 255 264 270 275 277 283 287 290 293 294 297 298 298 295 293 289
196 199 205 205 211 216 222 225 227 224 227 237 245 248 246 248 251 253 263 267 268 274 274 263 264 267 271 277 280 282 289 291 293 298 297 293 290 288
193 214 219 221 225 227 229 227 226 229 233 237 241 246 250 253 255 249 250 260 268 274 277 280 280 276 270 260 251 277 286 291 294 295 291 290 290 291
210 226 228 229 231 232 233 235 236 233 233 235 240 245 250 253 256 257 256 260 266 272 276 278 277 279 284 287 276 234 278 289 291 288 287 288 289 292
226 232 234 234 236 237 237 237 239 238 234 236 239 244 248 253 257 259 260 263 270 274 274 270 270 274 281 292 296 286 252 273 284 287 290 290 288 286
223 232 237 238 238 240 241 240 240 241 239 239 241 244 249 253 257 261 264 265 267 271 273 274 276 270 275 281 279 279 279 254 263 277 289 290 290 290
232 234 235 238 240 241 242 241 241 241 241 242 244 247 250 254 258 261 265 267 265 267 274 277 276 268 266 271 279 286 289 288 269 253 256 263 277 286
241 242 242 242 242 243 244 245 247 248 247 249 250 251 253 256 260 263 265 265 269 272 275 277 277 273 271 273 278 283 288 292 291 289 278 260 253 262